COSMOS 2234 (GLONASS)

Satellite information

Favourite Embed

Satellite Type and Status

PAYLOADIN ORBIT

Key statistics

Satellite COSMOS 2234 (GLONASS) at a glance.

Uptime

11888

Days in orbit

Revolutions

≈ 2.1

Per day

Orbit

MEO

Medium Earth Orbit

Inclination

64.7

Latest

Satellite identification and parameters

Extended collection of information and parameters for COSMOS 2234 (GLONASS).

Object identification

Identified? True

Debris? False

Object name: COSMOS 2234 (GLONASS)

International designator: 1993-010A

Object number (NORAD): 22512

Object ID (CCSDS): 22512

Country: COMMONWEALTH OF INDEPENDENT STATES (CIS)

Current information (Y/N): Y

RCS size: LARGE

Orbital parameters

Period: 675.727 minutes

Inclination: 64.7281 deg

SMA: 25507.888 km

Apoapsis: 19190.326 km

Periapsis: 19069.18 km

RAAN: 79.9443 deg

Eccentricy: 0.00237466

Argument of periapsis: 216.0224 deg

Mean anomaly: 323.3221 deg

Mean motion: 2.13103711 rev/day

Mean motion (dot): 0.00000039 rev/day2

B* drag term: 0.0 1/REarth

Two-line elements (TLE)

Creation date: Sept. 2, 2025, 11:42 p.m.

Reference frame: TEME

Reference center: EARTH

Epoch: Sept. 2, 2025, 12:29 p.m. UTC

TLE line 0: 0 COSMOS 2234 (GLONASS)

TLE line 1: 1 22512U 93010A 25245.52030134 .00000039 00000-0 00000-0 0 9993

TLE line 2: 2 22512 64.7281 79.9443 0023747 216.0224 323.3221 2.13103711253003

Live tracking on map

Real-time ground track for satellite COSMOS 2234 (GLONASS).

In-orbit conjunctions

A list of the most updated potential collisions computed for object COSMOS 2234 (GLONASS).

Target Orbit TCA Probability of collision Miss distance Type
SL-12 R/B(2) MEO 2024-09-03 22:00:31 TBA 4120.0 (m) ROCKET BODY

Associated space launch

GLONASS navigation satellites

COSMOS 2234 (GLONASS) was lifted into orbit during the mission ‘Proton | Uragan 51 to 53’, on board a Proton space rocket.

The launch took place on Feb. 17, 1993, 8:09 p.m. from 81/23 (81L).

For more information about the launch, click the button.

Launch to space Proton | Uragan 51 to 53
Proton | Uragan 51 to 53

Agency: N/A

Status: Launch Successful

Launch date: Feb. 17, 1993, 8:09 p.m. UTC

Rocket: Proton

Launch pad: 81/23 (81L)

Location: Baikonur Cosmodrome, Republic of Kazakhstan

...

Latest news about this satellite

There are no fresh news available about this satellite. Check back as we update our databases every day.


Newsletter sign-up

Weekly statistics, charts and insights to help you stay on top of the space industry.